CW5467 Weather Reports


time (UTC)temp
C
wind
direction
speed
KPH
gust
KPH
rain 1hr
cm
rain 24hr
cm
rain mn
cm
humidity
%
barometer
mb
20260502123001 2 5 8.0 14.5 0.00 0.00 0.00 82 1020.4
20260502122001 2 348 8.0 12.9 0.00 0.00 0.00 84 1020.4
20260502120957 2 161 4.8 12.9 0.00 0.00 0.00 86 1020.3
20260502114958 1 316 4.8 8.0 0.00 0.00 0.00 88 1020.2
20260502113958 0 282 0.0 0.0 0.00 0.00 0.00 89 1020.1
20260502110957 -1 292 0.0 3.2 0.00 0.00 0.00 89 1019.9
20260502110002 0 67 0.0 1.6 0.00 0.00 0.00 89 1019.9
20260502105001 0 277 0.0 1.6 0.00 0.00 0.00 88 1019.9
20260502104001 0 302 0.0 3.2 0.00 0.00 0.00 85 1019.9
20260502102959 0 67 0.0 1.6 0.00 0.00 0.00 84 1019.9
20260502102001 0 67 0.0 0.0 0.00 0.00 0.00 84 1019.9
20260502100959 0 300 0.0 0.0 0.00 0.00 0.00 83 1019.9
20260502091000 1 300 1.6 4.8 0.00 0.00 0.00 83 1019.6
20260502070959 1 251 0.0 0.0 0.00 0.00 0.00 85 1019.2
20260502065957 1 251 0.0 0.0 0.00 0.00 0.00 85 1019.4
20260502064959 1 251 0.0 0.0 0.00 0.00 0.00 84 1019.4
20260502063002 1 251 0.0 0.0 0.00 0.00 0.00 85 1019.3
20260502061959 1 251 0.0 0.0 0.00 0.00 0.00 84 1019.4
20260502060958 1 251 0.0 0.0 0.00 0.00 0.00 86 1019.4
20260502055958 1 251 0.0 0.0 0.00 0.00 0.00 86 1019.4
20260502055003 1 251 0.0 0.0 0.00 0.00 0.00 86 1019.5
20260502054001 1 251 0.0 0.0 0.00 0.00 0.00 84 1019.4
20260502053001 1 251 0.0 0.0 0.00 0.00 0.00 83 1019.5
20260502051958 1 251 0.0 0.0 0.00 0.00 0.00 82 1019.5
20260502051003 1 251 0.0 0.0 0.00 0.00 0.00 80 1019.5
20260502050008 1 251 0.0 0.0 0.00 0.00 0.00 79 1019.4
20260502044959 1 30 0.0 0.0 0.00 0.00 0.00 79 1019.4
20260502043958 1 55 0.0 0.0 0.00 0.00 0.00 79 1019.4
20260502040958 1 263 3.2 4.8 0.00 0.00 0.00 76 1019.4
20260502034959 1 15 3.2 6.4 0.00 0.00 0.00 75 1019.1
20260502034001 1 302 4.8 8.0 0.00 0.00 0.00 74 1019.2
20260502033001 1 280 3.2 6.4 0.00 0.00 0.00 73 1019.1
20260502032000 2 324 4.8 8.0 0.00 0.00 0.00 71 1019.0
20260502031003 2 335 4.8 12.9 0.00 0.00 0.00 67 1019.0
20260502030006 2 355 8.0 16.1 0.00 0.00 0.00 65 1018.9
20260502024958 2 341 6.4 14.5 0.00 0.00 0.00 64 1018.9
20260502023000 3 315 8.0 14.5 0.00 0.00 0.00 64 1018.8
20260502022003 3 333 8.0 12.9 0.00 0.00 0.00 64 1018.8
20260502020958 3 350 8.0 14.5 0.00 0.00 0.00 63 1018.7
20260502020006 3 333 8.0 16.1 0.00 0.00 0.00 63 1018.5
20260502015003 3 329 8.0 12.9 0.00 0.00 0.00 64 1018.4
20260502013002 4 329 9.7 17.7 0.00 0.00 0.00 61 1018.3
20260502012001 4 355 14.5 22.5 0.00 0.00 0.00 60 1018.1
20260502010005 4 344 6.4 16.1 0.00 0.00 0.00 62 1018.0
20260502005002 4 296 14.5 17.7 0.00 0.00 0.00 62 1018.1
20260502004001 4 317 14.5 22.5 0.00 0.00 0.00 61 1018.1
20260502002959 4 294 12.9 19.3 0.00 0.00 0.00 62 1018.0
20260502002001 4 301 17.7 25.7 0.00 0.00 0.00 61 1017.9
20260502001002 4 278 17.7 27.4 0.00 0.00 0.00 60 1017.7
20260501235000 5 295 17.7 27.4 0.00 0.00 0.00 57 1017.6
20260501233959 6 305 19.3 27.4 0.00 0.00 0.00 56 1017.5
20260501233000 6 285 24.1 37.0 0.00 0.00 0.00 54 1017.4
20260501232003 7 298 17.7 25.7 0.00 0.00 0.00 55 1017.3
20260501231001 7 309 16.1 22.5 0.00 0.00 0.00 56 1017.3
20260501224959 7 307 17.7 27.4 0.00 0.00 0.00 51 1017.3
20260501223959 7 312 20.9 29.0 0.00 0.00 0.00 52 1017.3
20260501221003 7 298 20.9 29.0 0.00 0.00 0.00 61 1017.1
20260501220000 6 290 14.5 24.1 0.00 0.00 0.00 64 1017.0
20260501215002 6 303 16.1 25.7 0.00 0.00 0.00 62 1017.1
20260501214001 7 294 19.3 25.7 0.00 0.00 0.00 63 1016.9
20260501213003 8 355 11.3 17.7 0.00 0.00 0.00 61 1017.0
20260501212002 7 11 9.7 19.3 0.00 0.00 0.00 66 1016.9
20260501210959 7 345 14.5 22.5 0.00 0.00 0.00 60 1016.8
20260501204958 8 317 16.1 20.9 0.00 0.00 0.00 65 1016.7
20260501204002 7 348 12.9 19.3 0.00 0.00 0.00 68 1016.7
20260501203001 7 348 9.7 17.7 0.00 0.00 0.00 65 1016.7
20260501201002 6 320 12.9 27.4 0.00 0.00 0.00 67 1016.7
20260501200005 7 311 11.3 20.9 0.00 0.00 0.00 68 1016.7
20260501195001 7 302 9.7 19.3 0.00 0.00 0.00 66 1016.7
20260501194003 7 283 14.5 22.5 0.00 0.00 0.00 66 1016.7
20260501192001 6 293 8.0 24.1 0.00 0.00 0.00 64 1016.6
20260501191000 7 284 14.5 25.7 0.00 0.00 0.00 66 1016.6
20260501184958 7 333 14.5 19.3 0.00 0.00 0.00 65 1016.4
20260501184002 7 293 12.9 20.9 0.00 0.00 0.00 64 1016.3
20260501183002 7 313 11.3 19.3 0.00 0.00 0.00 66 1016.3
20260501180957 7 316 9.7 20.9 0.00 0.00 0.00 66 1016.3
20260501180001 7 317 12.9 22.5 0.00 0.00 0.00 66 1016.3
20260501174958 7 360 11.3 16.1 0.00 0.00 0.00 65 1016.3
20260501174000 7 314 9.7 17.7 0.00 0.00 0.00 66 1016.3
20260501171957 6 355 6.4 19.3 0.00 0.00 0.00 68 1016.6
20260501170957 6 319 8.0 19.3 0.00 0.00 0.00 68 1016.5
20260501165958 6 339 9.7 16.1 0.00 0.00 0.00 69 1016.5
20260501164959 6 360 6.4 16.1 0.00 0.00 0.00 67 1016.5
20260501163959 5 311 8.0 16.1 0.00 0.00 0.00 71 1016.7
20260501163001 5 340 8.0 19.3 0.00 0.00 0.00 71 1016.6
20260501161959 5 320 14.5 22.5 0.00 0.00 0.00 71 1016.6
20260501160957 5 339 16.1 20.9 0.00 0.00 0.00 67 1016.6
20260501160003 5 309 11.3 20.9 0.00 0.00 0.00 68 1016.6
20260501154958 5 5 11.3 19.3 0.00 0.00 0.00 68 1016.5
20260501154000 6 329 11.3 17.7 0.00 0.00 0.00 67 1016.5
20260501152958 6 351 16.1 20.9 0.00 0.00 0.00 67 1016.4
20260501151957 6 360 6.4 16.1 0.00 0.00 0.00 70 1016.4
20260501151000 6 349 11.3 17.7 0.00 0.00 0.00 70 1016.4
20260501145957 6 10 8.0 17.7 0.00 0.00 0.00 71 1016.5
20260501145000 5 5 9.7 17.7 0.00 0.00 0.00 71 1016.4
20260501144001 5 351 11.3 16.1 0.00 0.00 0.00 70 1016.2
20260501142959 5 24 9.7 16.1 0.00 0.00 0.00 72 1016.1
20260501141959 5 345 9.7 12.9 0.00 0.00 0.00 72 1016.1
20260501140959 5 31 6.4 14.5 0.00 0.00 0.00 71 1015.9
20260501140001 5 11 9.7 14.5 0.00 0.00 0.00 71 1015.9